TimeCST,TemperatureF,Dew PointF,Humidity,Sea Level PressureIn,VisibilityMPH,Wind Direction,Wind SpeedMPH,Gust SpeedMPH,PrecipitationIn,Events,Conditions,WindDirDegrees,DateUTC
12:15 AM,33.8,30.2,87,29.12,10.0,SW,24.2,33.4,N/A,,Overcast,220,2014-02-21 06:15:00
12:35 AM,33.8,28.4,81,29.12,10.0,SW,18.4,29.9,N/A,,Overcast,220,2014-02-21 06:35:00
12:55 AM,33.8,28.4,81,29.11,10.0,SW,20.7,32.2,N/A,,Overcast,220,2014-02-21 06:55:00
1:15 AM,33.8,28.4,81,29.10,10.0,SW,17.3,29.9,N/A,,Overcast,230,2014-02-21 07:15:00
1:35 AM,33.8,28.4,81,29.11,10.0,SW,16.1,26.5,N/A,,Overcast,220,2014-02-21 07:35:00
1:55 AM,33.8,28.4,81,29.12,10.0,SW,20.7,34.5,N/A,,Overcast,230,2014-02-21 07:55:00
2:15 AM,32.0,28.4,87,29.13,10.0,SW,25.3,34.5,N/A,,Overcast,220,2014-02-21 08:15:00
2:35 AM,32.0,28.4,87,29.15,10.0,SW,24.2,32.2,N/A,,Overcast,220,2014-02-21 08:35:00
2:55 AM,32.0,26.6,80,29.17,10.0,SW,23.0,35.7,N/A,,Overcast,220,2014-02-21 08:55:00
3:15 AM,30.2,24.8,80,29.19,10.0,SSW,28.8,35.7,N/A,,Overcast,210,2014-02-21 09:15:00
3:35 AM,30.2,23.0,75,29.21,10.0,WSW,23.0,36.8,N/A,,Overcast,240,2014-02-21 09:35:00
3:55 AM,28.4,23.0,80,29.21,10.0,SW,23.0,31.1,N/A,,Overcast,230,2014-02-21 09:55:00
4:15 AM,28.4,21.2,74,29.21,10.0,SW,23.0,34.5,N/A,,Overcast,230,2014-02-21 10:15:00
4:35 AM,26.6,19.4,74,29.23,10.0,WSW,27.6,39.1,N/A,,Overcast,240,2014-02-21 10:35:00
4:55 AM,26.6,19.4,74,29.24,10.0,WSW,26.5,34.5,N/A,,Overcast,240,2014-02-21 10:55:00
5:15 AM,26.6,19.4,74,29.25,10.0,SW,21.9,31.1,N/A,,Overcast,220,2014-02-21 11:15:00
5:35 AM,24.8,17.6,74,29.26,10.0,WSW,25.3,34.5,N/A,,Overcast,240,2014-02-21 11:35:00
5:55 AM,23.0,17.6,80,29.27,10.0,WSW,29.9,34.5,N/A,,Overcast,240,2014-02-21 11:55:00
6:15 AM,23.0,15.8,74,29.28,10.0,WSW,19.6,29.9,N/A,,Overcast,240,2014-02-21 12:15:00
6:35 AM,23.0,17.6,80,29.29,10.0,SW,19.6,33.4,N/A,,Overcast,230,2014-02-21 12:35:00
6:55 AM,21.2,12.2,68,29.30,10.0,WSW,25.3,41.4,N/A,,Overcast,250,2014-02-21 12:55:00
7:15 AM,21.2,14.0,74,29.31,5.0,WSW,20.7,33.4,N/A,Snow,Light Snow,240,2014-02-21 13:15:00
7:35 AM,21.2,14.0,74,29.31,4.0,WSW,18.4,27.6,N/A,Snow,Light Snow,240,2014-02-21 13:35:00
7:55 AM,21.2,12.2,68,29.32,10.0,WSW,21.9,34.5,N/A,,Overcast,240,2014-02-21 13:55:00
8:15 AM,21.2,14.0,74,29.33,10.0,WSW,19.6,31.1,N/A,,Overcast,240,2014-02-21 14:15:00
8:35 AM,21.2,14.0,74,29.33,5.0,WSW,25.3,36.8,N/A,Snow,Light Snow,240,2014-02-21 14:35:00
8:55 AM,21.2,12.2,68,29.33,4.0,WSW,23.0,33.4,N/A,Snow,Light Snow,240,2014-02-21 14:55:00
9:15 AM,21.2,12.2,68,29.34,10.0,WSW,21.9,36.8,N/A,Snow,Light Snow,240,2014-02-21 15:15:00
9:35 AM,21.2,12.2,68,29.35,10.0,WSW,27.6,35.7,N/A,Snow,Light Snow,240,2014-02-21 15:35:00
9:55 AM,21.2,12.2,68,29.36,10.0,WSW,23.0,35.7,N/A,Snow,Light Snow,240,2014-02-21 15:55:00
10:15 AM,21.2,14.0,74,29.37,10.0,WSW,23.0,31.1,N/A,Snow,Light Snow,240,2014-02-21 16:15:00
10:35 AM,23.0,12.2,63,29.38,10.0,WSW,25.3,34.5,N/A,,Overcast,250,2014-02-21 16:35:00
10:55 AM,23.0,12.2,63,29.38,10.0,WSW,21.9,27.6,N/A,,Overcast,240,2014-02-21 16:55:00
11:15 AM,23.0,12.2,63,29.39,10.0,WSW,26.5,34.5,N/A,Snow,Light Snow,240,2014-02-21 17:15:00
11:35 AM,23.0,12.2,63,29.40,10.0,WSW,29.9,38.0,N/A,,Overcast,240,2014-02-21 17:35:00
11:55 AM,23.0,14.0,68,29.40,10.0,SW,24.2,35.7,N/A,,Overcast,230,2014-02-21 17:55:00
12:15 PM,23.0,14.0,68,29.41,10.0,WSW,23.0,34.5,N/A,,Overcast,240,2014-02-21 18:15:00
12:35 PM,24.8,12.2,59,29.42,10.0,WSW,24.2,35.7,N/A,,Overcast,240,2014-02-21 18:35:00
12:55 PM,24.8,14.0,64,29.43,10.0,WSW,27.6,36.8,N/A,,Mostly Cloudy,240,2014-02-21 18:55:00
1:15 PM,26.6,14.0,59,29.44,10.0,WSW,25.3,39.1,N/A,,Overcast,240,2014-02-21 19:15:00
1:51 PM,26.6,12.2,55,29.45,10.0,WSW,28.8,35.7,N/A,,Overcast,240,2014-02-21 19:51:00
2:15 PM,26.6,14.0,59,29.46,10.0,WSW,23.0,35.7,N/A,,Mostly Cloudy,240,2014-02-21 20:15:00
2:35 PM,28.4,14.0,55,29.47,10.0,WSW,19.6,34.5,N/A,,Scattered Clouds,240,2014-02-21 20:35:00
2:55 PM,28.4,14.0,55,29.48,10.0,WSW,25.3,34.5,N/A,,Clear,250,2014-02-21 20:55:00
3:15 PM,28.4,14.0,55,29.49,10.0,WSW,15.0,32.2,N/A,,Clear,240,2014-02-21 21:15:00
3:35 PM,28.4,12.2,51,29.50,10.0,WSW,26.5,34.5,N/A,,Clear,240,2014-02-21 21:35:00
3:55 PM,28.4,12.2,51,29.51,10.0,WSW,20.7,29.9,N/A,,Clear,250,2014-02-21 21:55:00
4:15 PM,26.6,12.2,55,29.52,10.0,WSW,21.9,39.1,N/A,,Clear,240,2014-02-21 22:15:00
4:35 PM,26.6,12.2,55,29.53,10.0,WSW,23.0,32.2,N/A,,Clear,240,2014-02-21 22:35:00
4:55 PM,26.6,12.2,55,29.54,10.0,WSW,25.3,33.4,N/A,,Clear,240,2014-02-21 22:55:00
5:15 PM,26.6,12.2,55,29.55,10.0,WSW,19.6,29.9,N/A,,Clear,240,2014-02-21 23:15:00
5:35 PM,24.8,12.2,59,29.56,10.0,WSW,18.4,32.2,N/A,,Clear,240,2014-02-21 23:35:00
5:55 PM,24.8,12.2,59,29.57,10.0,WSW,21.9,31.1,N/A,,Clear,240,2014-02-21 23:55:00
6:15 PM,24.8,10.4,54,29.59,10.0,WSW,19.6,29.9,N/A,,Clear,240,2014-02-22 00:15:00
6:35 PM,23.0,10.4,59,29.59,10.0,WSW,23.0,29.9,N/A,,Clear,240,2014-02-22 00:35:00
6:55 PM,23.0,10.4,59,29.60,10.0,WSW,21.9,31.1,N/A,,Clear,240,2014-02-22 00:55:00
7:15 PM,23.0,10.4,59,29.61,10.0,WSW,21.9,29.9,N/A,,Clear,240,2014-02-22 01:15:00
7:51 PM,21.2,10.4,63,29.63,10.0,WSW,23.0,32.2,N/A,,Clear,240,2014-02-22 01:51:00
7:55 PM,23.0,10.4,59,29.63,10.0,WSW,23.0,32.2,N/A,,Clear,240,2014-02-22 01:55:00
8:15 PM,21.2,10.4,63,29.64,10.0,WSW,19.6,34.5,N/A,,Clear,250,2014-02-22 02:15:00
8:35 PM,21.2,10.4,63,29.65,10.0,WSW,26.5,33.4,N/A,,Clear,240,2014-02-22 02:35:00
8:55 PM,21.2,10.4,63,29.66,10.0,WSW,20.7,33.4,N/A,,Clear,250,2014-02-22 02:55:00
9:15 PM,21.2,10.4,63,29.67,10.0,WSW,19.6,27.6,N/A,,Clear,250,2014-02-22 03:15:00
9:35 PM,21.2,10.4,63,29.67,10.0,WSW,21.9,33.4,N/A,,Clear,250,2014-02-22 03:35:00
9:55 PM,21.2,8.6,58,29.67,10.0,WSW,17.3,32.2,N/A,,Clear,250,2014-02-22 03:55:00
10:15 PM,19.4,8.6,63,29.68,10.0,WSW,23.0,29.9,N/A,,Clear,250,2014-02-22 04:15:00
10:35 PM,19.4,8.6,63,29.68,10.0,WSW,16.1,28.8,N/A,,Clear,250,2014-02-22 04:35:00
10:55 PM,19.4,8.6,63,29.68,10.0,WSW,18.4,26.5,N/A,,Clear,250,2014-02-22 04:55:00
11:15 PM,19.4,8.6,63,29.68,10.0,WSW,19.6,28.8,N/A,,Clear,250,2014-02-22 05:15:00
11:35 PM,19.4,8.6,63,29.68,10.0,WSW,18.4,25.3,N/A,,Clear,250,2014-02-22 05:35:00
11:55 PM,19.4,8.6,63,29.69,10.0,WSW,18.4,23.0,N/A,,Clear,240,2014-02-22 05:55:00